Date,TemperatureHighF,TemperatureAvgF,TemperatureLowF,DewpointHighF,DewpointAvgF,DewpointLowF,HumidityHigh,HumidityAvg,HumidityLow,PressureMaxIn,PressureMinIn,WindSpeedMaxMPH,WindSpeedAvgMPH,GustSpeedMaxMPH,PrecipitationSumIn
2013-1-1,83.5,5.5,-11.4,59.9,-16.2,-33.1,51,36,20,30.27,30.00,16,6,16,0.00
2013-1-2,83.5,18.1,14.0,64.5,3.7,1.1,59,53,46,30.09,29.94,16,6,16,0.00
2013-1-3,83.5,12.3,7.7,59.9,-7.5,-22.2,49,41,20,30.27,27.20,21,11,21,0.00
2013-1-4,83.5,19.5,12.0,60.5,-2.1,-7.2,48,39,20,30.12,30.00,21,7,21,0.00
2013-1-5,83.5,16.2,9.7,55.9,-2.8,-21.0,57,43,20,30.09,29.85,14,5,14,0.00
2013-1-6,26.1,15.4,8.1,1.5,-6.1,-16.9,53,38,21,30.21,29.91,21,7,21,0.00
2013-1-7,83.5,28.8,17.6,51.3,7.6,0.0,47,41,30,30.00,29.88,22,10,22,0.00
2013-1-8,83.5,28.0,15.8,58.6,10.2,0.7,59,47,32,29.97,29.77,20,8,20,0.00
2013-1-9,83.5,29.3,24.4,59.9,7.4,3.0,52,40,30,30.36,28.53,33,12,33,0.00
2013-1-10,83.5,34.3,26.2,26.6,11.0,0.2,74,41,20,30.30,29.71,22,10,22,0.19
2013-1-11,41.0,37.1,34.0,39.7,34.7,26.6,95,91,74,29.74,29.38,18,8,18,0.03
2013-1-12,37.0,12.6,0.9,35.7,-5.6,-19.5,95,46,27,30.09,29.38,30,15,30,0.00
2013-1-13,6.3,1.7,-2.7,-15.5,-18.3,-21.2,41,38,31,30.24,30.06,15,7,15,0.00
2013-1-14,25.5,5.6,-0.2,-3.0,-17.1,-27.9,45,35,20,30.39,30.24,14,6,14,0.00
2013-1-15,83.5,19.0,7.2,11.9,-4.6,-15.5,56,36,20,30.27,29.77,20,10,20,0.00
2013-1-16,83.5,24.2,9.0,55.9,-0.1,-25.7,68,37,20,30.27,29.65,21,12,21,0.00
2013-1-17,16.2,10.6,3.2,-5.9,-18.7,-28.9,38,25,20,30.39,30.24,16,6,16,0.00
2013-1-18,83.5,28.1,15.3,61.1,9.3,-5.9,56,45,32,30.27,29.74,18,8,18,0.00
2013-1-19,83.5,20.8,-1.7,66.6,-0.6,-33.4,67,42,20,30.27,29.68,38,13,38,0.00
2013-1-20,83.5,-1.2,-6.3,38.2,-31.9,-38.0,35,21,20,30.39,30.24,23,11,23,0.00
2013-1-21,-6.5,-11.0,-15.9,-37.2,-41.1,-45.2,20,20,20,30.36,30.27,22,11,22,0.00
2013-1-22,83.5,-5.5,-17.5,38.2,-36.4,-46.6,20,20,20,30.39,30.21,13,6,13,0.00
2013-1-23,83.5,2.7,-9.9,43.9,-25.7,-40.9,42,25,20,30.62,25.37,30,11,30,0.00
2013-1-24,83.5,0.0,-11.4,38.2,-31.6,-41.4,20,20,20,30.65,30.12,20,9,20,0.00
2013-1-25,20.5,9.8,-0.2,-2.9,-20.2,-30.9,37,24,20,30.30,29.94,25,12,25,0.00
2013-1-26,130.1,12.1,-3.5,83.0,-18.5,-29.5,40,24,20,30.33,30.09,16,7,16,0.00
2013-1-27,33.8,28.6,21.7,22.5,8.5,-13.1,71,46,20,30.09,29.83,14,6,14,0.00
2013-1-28,37.0,32.2,28.9,31.3,25.2,21.6,86,76,58,29.91,29.65,14,4,14,0.17
2013-1-29,35.2,31.2,25.9,31.1,20.3,5.4,95,66,45,29.77,29.56,23,10,23,0.04
2013-1-30,130.1,14.5,4.8,7.4,-6.9,-19.7,49,37,29,29.80,29.68,30,16,30,0.00
2013-1-31,4.8,-2.6,-12.1,-15.4,-31.0,-42.6,40,24,20,30.27,29.77,28,14,28,0.00